EW4536 Weather Reports


time (UTC)temp
C
wind
direction
speed
KPH
gust
KPH
rain 1hr
cm
rain 24hr
cm
rain mn
cm
humidity
%
barometer
mb
20260510100034 20 134 0.0 3.2 0.00 1.07 0.05 97 1013.9
20260510094607 20 134 0.0 0.0 0.00 1.07 0.05 97 1013.8
20260510093047 20 134 0.0 3.2 0.00 1.07 0.05 96 1013.6
20260510091502 20 134 0.0 0.0 0.00 1.07 0.05 96 1013.3
20260510090042 20 134 0.0 1.6 0.00 1.07 0.05 96 1013.2
20260510084505 20 134 0.0 0.0 0.00 1.07 0.05 96 1012.9
20260510083049 20 134 0.0 0.0 0.05 1.07 0.05 96 1013.0
20260510081522 20 134 0.0 3.2 0.05 1.07 0.05 96 1012.7
20260510080044 20 134 0.0 0.0 0.05 1.07 0.05 96 1013.0
20260510074507 20 134 0.0 3.2 0.05 1.07 0.05 96 1012.9
20260510073044 20 134 1.6 3.2 0.00 1.02 0.00 96 1012.5
20260510071510 20 134 0.0 3.2 0.00 1.02 0.00 96 1012.9
20260510070053 20 134 0.0 3.2 0.00 1.02 0.00 96 1013.0
20260510064516 20 134 0.0 3.2 0.00 1.02 0.00 96 1012.9
20260510063048 20 134 0.0 3.2 0.00 1.02 0.00 96 1013.0
20260510061521 20 134 0.0 3.2 0.00 1.02 0.00 96 1013.2
20260510060056 20 134 0.0 3.2 0.00 1.02 0.00 96 1013.3
20260510054524 20 133 1.6 9.7 0.00 1.02 0.00 96 1013.2
20260510053104 20 150 0.0 3.2 0.00 1.02 0.00 96 1013.3
20260510051531 20 151 0.0 3.2 0.00 1.02 0.00 96 1013.6
20260510050110 20 150 0.0 3.2 0.00 1.02 0.00 96 1013.7
20260510044536 20 151 0.0 3.2 0.00 1.02 0.00 96 1014.0
20260510043111 20 150 0.0 3.2 0.00 1.02 0.00 96 1014.0
20260510041542 20 151 0.0 3.2 0.00 1.02 0.00 96 1014.0
20260510040001 20 151 0.0 3.2 0.00 1.02 0.00 96 1014.0
20260510034540 20 148 3.2 6.4 0.00 1.02 1.02 96 1014.0
20260510033004 20 152 0.0 0.0 0.00 1.02 1.02 96 1013.9
20260510031547 20 152 0.0 0.0 0.00 1.02 1.02 96 1014.0
20260510030006 20 152 0.0 0.0 0.00 1.02 1.02 96 1013.9
20260510024549 20 152 0.0 0.0 0.00 1.04 1.02 95 1014.0
20260510023005 20 152 0.0 0.0 0.00 1.04 1.02 95 1013.6
20260510021544 20 152 0.0 0.0 0.00 1.04 1.02 95 1013.4
20260510020018 20 152 0.0 0.0 0.00 1.04 1.02 95 1013.1
20260510014558 20 152 0.0 0.0 0.00 1.19 1.02 95 1013.2
20260510013019 20 152 0.0 3.2 0.00 1.19 1.02 95 1013.2
20260510011606 20 152 0.0 3.2 0.00 1.19 1.02 95 1013.0
20260510010031 20 152 0.0 1.6 0.00 1.19 1.02 95 1012.9
20260510004612 20 152 0.0 3.2 0.00 1.50 1.02 95 1012.6
20260510003100 20 152 0.0 3.2 0.00 1.50 1.02 94 1012.8
20260510001517 20 152 1.6 4.8 0.03 1.50 1.02 94 1012.6
20260510000047 20 153 0.0 4.8 0.13 1.50 1.02 94 1012.8
20260509234527 21 167 0.0 3.2 0.13 1.50 1.02 94 1013.1
20260509233059 21 167 0.0 3.2 0.13 1.50 1.02 93 1013.2
20260509231536 21 264 0.0 3.2 0.10 1.45 0.99 93 1013.4
20260509230110 21 265 1.6 4.8 0.00 1.37 0.89 92 1013.5
20260509224535 21 37 0.0 0.0 0.00 1.37 0.89 92 1013.3
20260509223105 21 37 0.0 0.0 0.00 1.37 0.89 92 1013.1
20260509221530 21 37 0.0 0.0 0.00 1.37 0.89 91 1013.0
20260509220004 21 38 0.0 0.0 0.00 1.37 0.89 91 1012.9
20260509214539 21 38 0.0 0.0 0.00 1.37 0.89 91 1012.7
20260509213011 21 38 0.0 3.2 0.00 1.37 0.89 91 1012.8
20260509211601 21 37 0.0 3.2 0.00 1.37 0.89 91 1012.7
20260509210015 21 28 0.0 6.4 0.00 1.37 0.89 92 1012.6
20260509204545 21 46 0.0 6.4 0.00 1.37 0.89 92 1012.8
20260509203009 20 43 1.6 4.8 0.03 1.37 0.89 93 1012.6
20260509201543 20 46 1.6 6.4 0.03 1.37 0.89 93 1012.8
20260509200009 20 44 1.6 9.7 0.05 1.37 0.89 93 1012.8
20260509194541 20 26 0.0 8.0 0.33 1.37 0.89 93 1013.2
20260509193010 20 33 4.8 8.0 0.71 1.35 0.86 92 1013.2
20260509191554 20 44 3.2 14.5 0.86 1.35 0.86 91 1013.6
20260509190021 21 333 6.4 20.9 0.84 1.32 0.84 90 1013.3
20260509184606 22 290 3.2 8.0 0.56 1.04 0.56 91 1013.0
20260509183042 23 302 0.0 3.2 0.13 0.61 0.13 86 1012.5
20260509181501 25 257 0.0 6.4 0.00 0.48 0.00 80 1012.6
20260509180042 25 254 3.2 8.0 0.00 0.48 0.00 79 1012.6
20260509174508 25 283 3.2 6.4 0.00 0.48 0.00 79 1012.8
20260509173039 25 272 3.2 8.0 0.00 0.48 0.00 79 1013.1
20260509171504 25 282 8.0 12.9 0.00 0.48 0.00 78 1013.0
20260509170038 25 291 3.2 9.7 0.00 0.48 0.00 79 1013.1
20260509164515 25 226 3.2 11.3 0.00 0.48 0.00 79 1013.2
20260509163101 24 233 0.0 8.0 0.00 0.48 0.00 81 1013.3
20260509161520 23 155 0.0 8.0 0.00 0.48 0.00 81 1013.4
20260509160100 23 118 0.0 6.4 0.00 0.48 0.00 83 1013.2
20260509154525 23 155 0.0 6.4 0.00 0.48 0.00 83 1013.2
20260509153104 22 111 0.0 6.4 0.00 0.48 0.00 84 1013.5
20260509151532 22 142 3.2 9.7 0.00 0.48 0.00 85 1013.1
20260509150105 22 96 0.0 3.2 0.00 0.48 0.00 85 1013.4
20260509144534 22 107 0.0 3.2 0.00 0.48 0.00 85 1013.8
20260509143100 22 106 0.0 1.6 0.00 0.48 0.00 84 1013.4
20260509141525 22 111 0.0 3.2 0.00 0.48 0.00 85 1013.4
20260509140059 21 111 0.0 3.2 0.00 0.48 0.00 87 1013.3
20260509134526 21 111 0.0 3.2 0.00 0.48 0.00 86 1013.1
20260509133110 21 92 0.0 4.8 0.00 0.48 0.00 87 1013.2
20260509131531 20 29 0.0 4.8 0.00 0.48 0.00 89 1013.4
20260509124533 20 28 0.0 3.2 0.00 0.48 0.00 91 1013.2
20260509123110 20 28 1.6 4.8 0.00 0.48 0.00 91 1013.2
20260509121538 19 46 0.0 4.8 0.00 0.48 0.00 91 1012.6
20260509120013 19 46 0.0 4.8 0.00 0.48 0.00 92 1012.8
20260509114545 19 48 0.0 6.4 0.00 0.48 0.00 93 1012.7
20260509113007 18 126 0.0 1.6 0.00 0.48 0.00 93 1012.5
20260509111549 18 126 0.0 3.2 0.00 0.48 0.00 93 1012.1
20260509110007 18 126 0.0 3.2 0.00 0.48 0.00 92 1011.4
20260509104551 18 126 0.0 3.2 0.00 0.48 0.00 92 1011.4
20260509103015 18 126 0.0 4.8 0.00 0.48 0.00 93 1011.2
20260509101600 18 147 3.2 6.4 0.00 0.48 0.00 94 1010.9